Hoehne, CO

5:24 AM MST on February 27, 2017 (GMT -0700)
Stokes

Weather History for KTAD - February, 2012

Change the Weather History Date:

Wednesday, February 15, 2012

  Actual Average Record
Temperature  
Mean Temperature 32 °F 35 °F  
Max Temperature 44 °F 50 °F 73 °F (2014)
Min Temperature 19 °F 20 °F -7 °F (1990)
Degree Days  
Heating Degree Days 33 30  
Month to date heating degree days 507 470  
Since 1 July heating degree days 3415 3752  
Cooling Degree Days 0 0  
Month to date cooling degree days 0 0  
Year to date cooling degree days 0 0  
Moisture  
Dew Point 18 °F    
Average Humidity 54    
Maximum Humidity 77    
Minimum Humidity 31    
Precipitation  
Precipitation 0.00 in 0.02 in 0.18 in (2015)
Month to date precipitation 0.04 0.24  
Year to date precipitation 0.64  
Snow  
Snow 0.00 in - - ()
Month to date snowfall 0.0  
Snow Depth 0.00 in    
Sea Level Pressure  
Sea Level Pressure 29.92 in    
Wind  
Wind Speed 7 mph (North)    
Max Wind Speed 15 mph    
Max Gust Speed 18 mph    
Visibility 10 miles    
Events      
T = Trace of Precipitation, MM = Missing Value Source: NWS Daily Summary

Daily Weather History Graph

Daily Weather History Graph

Search for Another Location

Airport or City:

Trip Planner

Search our weather history database for the weather conditions in past years. The results will help you decide how hot, cold, wet, or windy it might be!

Date:

Astronomy

Feb. 15, 2012 Rise Set
Actual Time 6:46 AM MST 5:36 PM MST
Civil Twilight 6:20 AM MST 6:03 PM MST
Nautical Twilight 5:49 AM MST 6:33 PM MST
Astronomical Twilight 5:19 AM MST 7:04 PM MST
Moon 1:38 AM MST (2/15) 11:38 AM MST (2/15)
Length of Visible Light 11h 43m
Length of Day
10h 49m
Last Quarter, 38% of the Moon is Illuminated
Feb 15
Last Quarter
Feb 21
New
Feb 29
First Quarter
Mar 8
Full
Mar 14
Last Quarter

Hourly Weather History & Observations

Time (MST) Temp. Windchill Dew Point Humidity Pressure Visibility Wind Dir Wind Speed Gust Speed Precip Events Conditions
12:54 AM 34.0 °F 28.8 °F 24.1 °F 67% 29.61 in 10.0 mi WNW 5.8 mph - N/A   Clear
1:54 AM 30.0 °F 21.7 °F 21.0 °F 69% 29.62 in 10.0 mi WNW 9.2 mph - N/A   Clear
2:54 AM 30.9 °F 25.2 °F 19.0 °F 61% 29.66 in 10.0 mi WNW 5.8 mph - N/A   Overcast
3:54 AM 32.0 °F 23.6 °F 19.0 °F 59% 29.69 in 10.0 mi North 10.4 mph - N/A   Overcast
4:17 AM 32.0 °F 25.6 °F 19.4 °F 60% 29.79 in 10.0 mi North 6.9 mph - N/A   Overcast
4:32 AM 32.0 °F 24.2 °F 19.4 °F 60% 29.79 in 10.0 mi North 9.2 mph - N/A   Overcast
5:54 AM 30.0 °F 24.1 °F 19.0 °F 64% 29.82 in 10.0 mi NW 5.8 mph - N/A   Overcast
6:54 AM 28.0 °F 20.8 °F 19.0 °F 69% 29.90 in 10.0 mi NW 6.9 mph - N/A   Overcast
7:54 AM 30.0 °F 24.1 °F 19.0 °F 64% 29.94 in 10.0 mi NW 5.8 mph - N/A   Mostly Cloudy
8:54 AM 37.0 °F 30.4 °F 19.9 °F 50% 29.93 in 10.0 mi North 9.2 mph - N/A   Mostly Cloudy
9:54 AM 37.0 °F 33.3 °F 18.0 °F 46% 29.96 in 10.0 mi North 4.6 mph - N/A   Scattered Clouds
10:54 AM 37.9 °F 34.4 °F 17.1 °F 43% 29.97 in 10.0 mi Variable 4.6 mph - N/A   Scattered Clouds
11:54 AM 42.1 °F 37.7 °F 15.1 °F 34% 29.95 in 10.0 mi Variable 6.9 mph - N/A   Clear
12:54 PM 44.1 °F 39.0 °F 15.1 °F 31% 29.91 in 10.0 mi NE 9.2 mph - N/A   Partly Cloudy
1:54 PM 43.0 °F 38.2 °F 16.0 °F 34% 29.91 in 10.0 mi NNE 8.1 mph - N/A   Clear
2:54 PM 43.0 °F 38.2 °F 18.0 °F 37% 29.93 in 10.0 mi East 8.1 mph 18.4 mph N/A   Scattered Clouds
3:54 PM 42.1 °F 36.1 °F 19.0 °F 40% 29.94 in 10.0 mi East 10.4 mph - N/A   Mostly Cloudy
4:54 PM 39.0 °F 32.3 °F 19.0 °F 45% 29.97 in 10.0 mi East 10.4 mph - N/A   Clear
5:54 PM 35.1 °F 27.9 °F 19.0 °F 52% 30.01 in 10.0 mi ENE 9.2 mph - N/A   Clear
6:54 PM 30.0 °F 22.4 °F 18.0 °F 61% 30.08 in 10.0 mi East 8.1 mph - N/A   Clear
7:54 PM 28.9 °F 21.9 °F 18.0 °F 64% 30.09 in 10.0 mi ENE 6.9 mph - N/A   Mostly Cloudy
8:54 PM 21.9 °F - 15.1 °F 75% 30.12 in 10.0 mi Calm Calm - N/A   Clear
9:54 PM 24.1 °F - 16.0 °F 71% 30.13 in 10.0 mi Calm Calm - N/A   Clear
10:54 PM 23.0 °F 17.0 °F 16.0 °F 74% 30.15 in 10.0 mi West 4.6 mph - N/A   Clear
11:54 PM 21.0 °F 16.2 °F 15.1 °F 78% 30.14 in 10.0 mi West 3.5 mph - N/A   Clear